Location: Armidale
(30.5016°S, 151.6662°E)
Time: 01:16:52
(UTC+10:00)

BEESAT 2 - Visible Passes

Search period start: 04 August 2021 00:00
Search period end: 14 August 2021 00:00
Orbit: 494 x 524 km, 64.9° (Epoch: 02 August)

Date Brightness Start Highest point End Pass type
(mag) Time Alt. Az. Time Alt. Az. Time Alt. Az.
04 Aug ? 04:36:26 12° SSE 04:38:26 17° SE 04:40:58 10° E visible
05 Aug ? 04:19:52 15° SE 04:20:33 16° SE 04:23:02 10° E visible
05 Aug ? 05:54:46 11° SW 05:58:03 29° WNW 06:01:27 10° N visible
05 Aug ? 19:37:57 10° NW 19:39:27 22° NW 19:39:27 22° NW visible
06 Aug ? 04:03:25 15° ESE 04:03:25 15° ESE 04:05:05 10° E visible
06 Aug ? 05:38:19 20° WSW 05:40:12 30° WNW 05:43:38 10° N visible
06 Aug ? 19:20:04 10° NW 19:23:15 44° W 19:23:15 44° W visible
07 Aug ? 03:47:04 10° E 03:47:04 10° E 03:47:08 10° E visible
07 Aug ? 05:21:59 31° W 05:22:20 31° WNW 05:25:48 10° N visible
07 Aug ? 19:02:10 10° NW 19:05:52 49° WSW 19:07:00 36° S visible
08 Aug ? 05:05:43 26° NNW 05:05:43 26° NNW 05:07:58 10° N visible
08 Aug ? 18:44:17 10° NW 18:48:00 51° WSW 18:50:40 18° S visible
09 Aug ? 04:49:31 14° N 04:49:31 14° N 04:50:08 10° N visible
09 Aug ? 18:26:23 10° NW 18:30:07 53° WSW 18:33:52 10° SSE visible
10 Aug ? 18:08:30 10° NW 18:12:14 55° WSW 18:16:00 10° SSE visible
11 Aug ? 17:50:36 10° NW 17:54:20 57° WSW 17:58:07 10° SSE visible
